DW0805 Ramloese DK current weather conditions

sailwx.info

Wind from 229 at 6 knots gusting 11

Air temperature 5.0° C
Dewpoint 4.4° C

Last reported at 2020-Jan-26 01:05 UTC.
Time now 2020-Jan-26 01:58 UTC

Location: N 56°01' E 012°05'.
View on Google Maps.

See reports from other nearby stations

  
Tides and Currents Weather Stations Pressure Air Temp Water Temp Dewpoint Dewpoint Depression Visibility Wind Speed Wind Dir Waves Ship Positions
date/time (UTC)wind fromknots sea level pressurealtimeterstation pressurevisibilityair tempwater tempwave heightnotes
2020-Jan-26 01:05 229 6 gusting 11 5.0
2020-Jan-26 00:35 233 8 gusting 13 5.0
2020-Jan-26 00:25 239 6 gusting 12 5.0
2020-Jan-25 23:55 236 10 gusting 14 5.0
2020-Jan-25 23:35 238 8 gusting 13 5.0
2020-Jan-25 23:25 240 9 gusting 14 5.6
2020-Jan-25 23:15 232 10 gusting 14 5.6
2020-Jan-25 23:05 240 7 gusting 13 5.6
2020-Jan-25 22:35 232 6 gusting 10 5.6
2020-Jan-25 22:25 232 5 gusting 11 5.6
2020-Jan-25 22:05 243 4 gusting 7 5.0
2020-Jan-25 21:55 244 4 gusting 7 5.0
2020-Jan-25 21:45 243 5 gusting 8 5.0
2020-Jan-25 21:05 253 6 gusting 10 5.6
2020-Jan-25 20:55 252 8 gusting 11 5.6
2020-Jan-25 20:45 258 6 gusting 11 6.1
2020-Jan-25 20:25 260 5 gusting 11 6.1
2020-Jan-25 20:05 254 5 gusting 10 6.1
2020-Jan-25 19:55 256 7 gusting 12 6.1
2020-Jan-25 19:45 261 7 gusting 13 6.1
2020-Jan-25 19:35 260 6 gusting 12 6.1
2020-Jan-25 19:15 260 6 gusting 10 6.7
2020-Jan-25 19:05 259 6 gusting 11 6.7
2020-Jan-25 18:55 265 5 gusting 7 6.7
2020-Jan-25 18:45 268 4 gusting 7 6.7
2020-Jan-25 18:15 259 5 gusting 7 6.7
2020-Jan-25 18:05 259 2 gusting 6 6.7
2020-Jan-25 17:55 259 2 gusting 6 6.7
2020-Jan-25 17:35 259 5 gusting 7 6.7
2020-Jan-25 17:25 259 4 gusting 7 6.7
2020-Jan-25 17:05 259 2 gusting 6 6.7
2020-Jan-25 16:55 259 2 gusting 6 6.7
2020-Jan-25 16:35 259 1 gusting 5 6.7
2020-Jan-25 16:25 259 1 gusting 6 6.7
2020-Jan-25 16:05 259 4 gusting 6 6.7
2020-Jan-25 15:55 259 0 gusting 6 6.7
2020-Jan-25 15:35 320 4 gusting 7 6.7
2020-Jan-25 15:05 271 2 gusting 7 6.7
2020-Jan-25 14:45 332 2 gusting 6 6.7
2020-Jan-25 14:35 308 2 gusting 6 6.7
2020-Jan-25 14:25 281 2 gusting 6 6.7
2020-Jan-25 14:15 306 6 gusting 10 7.2
2020-Jan-25 14:05 289 2 gusting 7 7.2
2020-Jan-25 13:55 318 4 gusting 6 7.8
2020-Jan-25 13:45 282 4 gusting 8 8.3
2020-Jan-25 13:35 287 2 gusting 7 8.3
2020-Jan-25 13:25 309 5 gusting 8 8.3
2020-Jan-25 13:15 314 5 gusting 11 8.3
2020-Jan-25 13:05 290 4 gusting 12 8.3
2020-Jan-25 12:45 272 5 gusting 13 7.8
2020-Jan-25 12:35 315 7 gusting 12 7.8
2020-Jan-25 12:25 292 6 gusting 13 7.8
2020-Jan-25 12:15 315 6 gusting 10 7.8
2020-Jan-25 11:55 298 7 gusting 12 7.8
2020-Jan-25 11:15 304 5 gusting 10 7.8
2020-Jan-25 10:45 299 5 gusting 13 7.2
2020-Jan-25 10:35 292 4 gusting 12 7.2
2020-Jan-25 10:15 301 6 gusting 12 7.2
2020-Jan-25 10:05 284 8 gusting 13 6.7
2020-Jan-25 09:55 302 6 gusting 13 6.7
2020-Jan-25 09:45 298 6 gusting 10 6.7
2020-Jan-25 09:35 301 6 gusting 13 6.7
2020-Jan-25 09:25 326 6 gusting 13 6.7
2020-Jan-25 09:05 305 8 gusting 13 6.1
2020-Jan-25 08:55 335 6 gusting 12 6.1
2020-Jan-25 08:45 318 6 gusting 12 5.6
2020-Jan-25 08:35 321 5 gusting 11 5.6
2020-Jan-25 08:25 319 6 gusting 11 5.6
2020-Jan-25 08:15 290 4 gusting 7 5.0
2020-Jan-25 08:05 285 5 gusting 10 5.0
2020-Jan-25 07:55 335 4 gusting 10 5.0
2020-Jan-25 07:45 335 5 gusting 7 5.0
2020-Jan-25 07:35 315 2 gusting 6 5.0
2020-Jan-25 06:55 277 4 gusting 10 5.0
2020-Jan-25 06:45 294 4 gusting 10 5.0
2020-Jan-25 06:35 276 4 gusting 7 5.0
2020-Jan-25 06:25 284 5 gusting 8 5.0
2020-Jan-25 06:15 267 3 gusting 6 5.0
2020-Jan-25 06:05 266 2 gusting 8 5.0
2020-Jan-25 05:55 263 6 gusting 8 5.0
2020-Jan-25 05:35 269 4 gusting 7 5.0
2020-Jan-25 05:25 267 3 gusting 8 5.0
2020-Jan-25 05:15 273 6 gusting 10 5.0
2020-Jan-25 05:05 283 5 gusting 10 5.0
2020-Jan-25 04:45 272 4 gusting 8 5.0
2020-Jan-25 04:35 272 5 gusting 11 5.0
2020-Jan-25 04:25 280 6 gusting 10 5.0
2020-Jan-25 04:15 277 6 gusting 8 5.0
2020-Jan-25 04:05 283 5 gusting 10 5.0
2020-Jan-25 03:55 285 5 gusting 11 5.0
2020-Jan-25 03:45 272 6 gusting 8 5.0
2020-Jan-25 03:35 268 5 gusting 10 5.0
2020-Jan-25 03:25 275 7 gusting 12 5.0
2020-Jan-25 02:55 282 4 gusting 7 5.0
2020-Jan-25 02:45 311 5 gusting 12 5.0
2020-Jan-25 02:35 265 5 gusting 8 5.0
2020-Jan-25 02:25 298 6 gusting 11 5.0
2020-Jan-25 02:15 290 6 gusting 12 5.0
2020-Jan-25 02:05 291 6 gusting 12 5.0
2020-Jan-25 01:55 270 7 gusting 11 5.0
2020-Jan-25 01:45 284 5 gusting 11 5.0
2020-Jan-25 01:35 289 5 gusting 8 5.0
2020-Jan-25 01:25 280 4 gusting 11 5.0
2020-Jan-25 01:05 300 5 gusting 11 5.0
2020-Jan-25 00:55 288 6 gusting 12 5.6
2020-Jan-25 00:45 306 6 gusting 12 5.6
2020-Jan-25 00:35 287 6 gusting 13 5.6
2020-Jan-25 00:05 291 8 gusting 12 5.6
2020-Jan-24 23:55 265 5 gusting 12 6.1
2020-Jan-24 23:45 281 6 gusting 13 6.1
2020-Jan-24 23:25 290 7 gusting 13 6.1
2020-Jan-24 23:15 262 6 gusting 13 6.1
2020-Jan-24 23:05 285 6 gusting 11 6.1
2020-Jan-24 22:45 272 6 gusting 13 6.1
2020-Jan-24 22:15 306 6 gusting 13 6.1
2020-Jan-24 21:55 273 6 gusting 13 6.1
2020-Jan-24 21:15 279 7 gusting 13 6.7
2020-Jan-24 20:55 272 8 gusting 13 6.7
2020-Jan-24 20:45 271 7 gusting 13 6.7
2020-Jan-24 20:35 267 10 gusting 14 6.7
2020-Jan-24 20:25 304 6 gusting 13 6.7
2020-Jan-24 20:15 279 6 gusting 15 6.7
2020-Jan-24 20:05 277 7 gusting 15 6.7
2020-Jan-24 19:55 285 8 gusting 13 6.7
2020-Jan-24 19:45 276 6 gusting 13 6.7
2020-Jan-24 19:25 279 6 gusting 13 6.7
2020-Jan-24 19:05 285 9 gusting 18 6.7
2020-Jan-24 18:55 276 9 gusting 13 6.7
2020-Jan-24 18:35 277 6 gusting 12 6.7
2020-Jan-24 18:25 288 6 gusting 13 6.7
2020-Jan-24 18:15 282 8 gusting 11 6.7
2020-Jan-24 18:05 278 6 gusting 13 6.7
2020-Jan-24 17:55 265 7 gusting 13 6.7
2020-Jan-24 17:45 282 6 gusting 13 6.7
2020-Jan-24 17:35 274 6 gusting 12 6.7
2020-Jan-24 17:25 272 8 gusting 13 6.7
2020-Jan-24 17:15 265 6 gusting 13 6.7
2020-Jan-24 17:05 274 7 gusting 12 6.7
2020-Jan-24 16:55 281 5 gusting 11 6.7
2020-Jan-24 16:45 283 5 gusting 10 6.7
2020-Jan-24 16:35 275 7 gusting 12 6.7
2020-Jan-24 16:25 280 6 gusting 13 6.7
2020-Jan-24 16:15 269 7 gusting 12 6.7
2020-Jan-24 15:45 280 6 gusting 12 6.7
2020-Jan-24 15:35 276 5 gusting 8 6.7
2020-Jan-24 15:25 281 6 gusting 11 6.7
2020-Jan-24 15:15 268 5 gusting 11 6.7
2020-Jan-24 15:05 274 5 gusting 10 6.7
2020-Jan-24 14:55 288 6 gusting 13 6.7
2020-Jan-24 14:45 317 6 gusting 12 6.1
2020-Jan-24 14:35 324 6 gusting 12 6.1
2020-Jan-24 14:15 307 6 gusting 12 6.1
2020-Jan-24 14:05 327 8 gusting 12 6.1
2020-Jan-24 13:55 319 7 gusting 13 6.1
2020-Jan-24 13:45 269 7 gusting 13 6.1
2020-Jan-24 13:35 292 7 gusting 13 6.1
2020-Jan-24 13:15 335 7 gusting 13 6.7
2020-Jan-24 13:05 282 8 gusting 13 6.7
2020-Jan-24 12:55 296 8 gusting 13 6.7
2020-Jan-24 12:45 285 10 gusting 14 6.7
2020-Jan-24 12:25 278 10 gusting 15 6.7
2020-Jan-24 12:15 319 8 gusting 17 7.2
2020-Jan-24 11:55 276 8 gusting 17 7.2
2020-Jan-24 11:45 281 8 gusting 18 7.2
2020-Jan-24 11:35 306 8 gusting 17 7.2
2020-Jan-24 11:15 297 11 gusting 19 7.2
2020-Jan-24 11:05 273 10 gusting 15 7.2
2020-Jan-24 10:45 311 10 gusting 14 7.2
2020-Jan-24 10:15 277 8 gusting 13 7.2
2020-Jan-24 09:35 320 9 gusting 18 6.7
2020-Jan-24 09:05 302 10 gusting 15 6.7
2020-Jan-24 08:55 325 10 gusting 14 6.7
2020-Jan-24 08:45 294 6 gusting 13 6.7
2020-Jan-24 08:25 319 6 gusting 14 6.7
2020-Jan-24 08:15 326 6 gusting 13 6.7
2020-Jan-24 08:05 292 6 gusting 17 6.7
2020-Jan-24 07:55 283 9 gusting 15 6.7
2020-Jan-24 07:35 274 8 gusting 13 6.1
2020-Jan-24 07:15 262 8 gusting 13 6.1
2020-Jan-24 06:55 273 8 gusting 14 6.1
2020-Jan-24 06:45 287 5 gusting 13 6.1
2020-Jan-24 06:35 290 9 gusting 14 6.1
2020-Jan-24 06:25 263 10 gusting 13 6.1
2020-Jan-24 06:15 279 9 gusting 14 6.1
2020-Jan-24 05:55 273 7 gusting 13 6.1
2020-Jan-24 05:45 267 9 gusting 15 6.1
2020-Jan-24 05:35 265 8 gusting 13 6.7
2020-Jan-24 05:25 271 9 gusting 13 6.7
2020-Jan-24 05:05 273 8 gusting 14 6.7
2020-Jan-24 04:55 273 7 gusting 12 6.7
2020-Jan-24 04:45 261 7 gusting 13 6.7
2020-Jan-24 04:35 263 6 gusting 10 6.7
2020-Jan-24 04:25 260 6 gusting 13 6.7
2020-Jan-24 04:15 271 6 gusting 13 6.7
2020-Jan-24 04:05 257 7 gusting 17 6.7
2020-Jan-24 03:55 267 6 gusting 12 6.7
2020-Jan-24 03:35 264 6 gusting 12 6.7
2020-Jan-24 03:15 262 5 gusting 13 6.7
2020-Jan-24 02:55 300 5 gusting 11 6.7
2020-Jan-24 02:35 263 6 gusting 13 6.7
2020-Jan-24 02:25 263 5 gusting 13 6.7
2020-Jan-24 02:05 267 5 gusting 12 6.7
2020-Jan-24 01:55 271 5 gusting 11 6.7
2020-Jan-24 01:45 272 6 gusting 13 6.7
2020-Jan-24 01:25 261 4 gusting 10 6.7
2020-Jan-24 01:05 263 5 gusting 8 6.7